Regional Weather Roundup
Issued by NWS

Home | Current Version | Previous Version | Graphics & Text | Print | Product List | Glossary Off
Versions: 1 2 3 4 5 6 7 8 9 10 11 12 13 14 15 16 17 18 19 20 21 22 23 24 25 26 27 28 29 30 31 32 33 34 35 36 37 38 39 40 41 42 43 44 45 46 47 48 49 50

000
ASUS43 KTOP 281408
RWRKS

WEATHER ROUNDUP FOR KANSAS
NATIONAL WEATHER SERVICE GOODLAND KS
900 AM CDT THU AUG 28 2014

NOTE:  "FAIR" INDICATES FEW OR NO CLOUDS BELOW 12,000 FEET WITH NO
SIGNIFICANT WEATHER AND/OR OBSTRUCTIONS TO VISIBILITY.

KSZ001>006-013>018-027>032-041>047-281500-
NORTHWEST KANSAS

CITY           SKY/WX    TMP DP  RH WIND       PRES   REMARKS
GOODLAND       SUNNY     63  60  90 NW9       30.04S
HAYS           SUNNY     72  64  78 SE8       29.91F
HILL CITY      CLOUDY    69  67  93 NW5       29.92R
RUSSELL        MOSUNNY   76  67  73 SE21      29.90F
$$

KSZ061>065-074>080-084>089-281500-
SOUTHWEST KANSAS

CITY           SKY/WX    TMP DP  RH WIND       PRES   REMARKS
DODGE CITY     MOSUNNY   73  64  73 S15       29.93S
ELKHART          N/A     64  55  72 NW13        N/A
GARDEN CITY    SUNNY     67  64  90 CALM      29.94R FOG
GREAT BEND     MOSUNNY   77  64  65 S15       29.93S
LIBERAL        SUNNY     66  59  77 W13       29.97R
PRATT          MOSUNNY   73  63  68 S13       29.95S
$$

KSZ066>073-081>083-090>101-281500-
SOUTHEAST KANSAS

CITY           SKY/WX    TMP DP  RH WIND       PRES   REMARKS
CHANUTE        SUNNY     80  68  66 S10       30.00R
COFFEYVILLE    SUNNY     79  70  74 S12       29.99S
HUTCHINSON     LGT RAIN  73  68  84 S8        29.96S
MEDICINE LODGE   N/A     73  69  87 SE10      29.95R
NEWTON         CLOUDY    73  64  73 W6        30.01S
PARSONS        SUNNY     79  69  71 S6        30.01R
WICHITA INTL   CLOUDY    78  65  63 S9        29.97S
WICHITA JABRA  PTSUNNY   79  65  62 S12       29.97S
WICHITA MCCONL PTSUNNY   78  66  65 S10       29.98S
WINFIELD       MOSUNNY   79  66  64 S10       29.99S
$$

KSZ007>012-019>026-033>040-048>060-102>105-281500-
NORTHEAST KANSAS

CITY           SKY/WX    TMP DP  RH WIND       PRES   REMARKS
CONCORDIA      PTSUNNY   70  69  97 SE9       29.92F
EMPORIA        SUNNY     79  68  69 S10       29.98S
LAWRENCE       PTSUNNY   83  70  64 S3        29.97S
MANHATTAN      LGT RAIN  76  71  85 CALM      29.95F
MARYSVILLE     LGT RAIN  73  70  88 S6        29.97S
OLATHE IND     PTSUNNY   77  70  79 S9        29.99S
OLATHE EXE     PTSUNNY   76  71  85 S6        29.99R
SALINA         PTSUNNY   74  70  87 SE6       29.96R
TOPEKA BILLARD PTSUNNY   82  70  66 SW7       29.97R
TOPEKA FORBES  PTSUNNY   81  68  64 SW12      29.97S
$$


USA.gov is the U.S. government's official web portal to all federal, state and local government web resources and services.